This is the latest recevied weather packets stored in our database for station/object DH9SB-6. If no packets are shown the sender has not sent any weather packets the latest 10 day(s).
| Time | Temp. | Humidity | Pressure | Rain* | Wind** | Luminosity | Snow |
|---|---|---|---|---|---|---|---|
| 1787756558 | 30° C | 41% | - | 0 mm | - | - | - |
| 1787755980 | 30° C | 40% | - | 0 mm | - | - | - |
| 1787755357 | 30° C | 40% | - | 0 mm | - | - | - |
| 1787754780 | 29.44° C | 41% | - | 0 mm | - | - | - |
| 1787754157 | 29.44° C | 41% | - | 0 mm | - | - | - |
| 1787753580 | 29.44° C | 44% | - | 0 mm | - | - | - |
| 1787752956 | 28.33° C | 42% | - | 0 mm | - | - | - |
| 1787752381 | 28.33° C | 44% | - | 0 mm | - | - | - |
| 1787751757 | 27.78° C | 47% | - | 0 mm | - | - | - |
| 1787751182 | 27.22° C | 49% | - | 0 mm | - | - | - |
| 1787750559 | 27.22° C | 50% | - | 0 mm | - | - | - |
| 1787749980 | 27.22° C | 51% | - | 0 mm | - | - | - |
| 1787749358 | 27.22° C | 52% | - | 0 mm | - | - | - |
| 1787748782 | 27.22° C | 51% | - | 0 mm | - | - | - |
| 1787748157 | 27.22° C | 52% | - | 0 mm | - | - | - |
| 1787747581 | 27.78° C | 49% | - | 0 mm | - | - | - |
| 1787746957 | 28.33° C | 49% | - | 0 mm | - | - | - |
| 1787746380 | 27.22° C | 54% | - | 0 mm | - | - | - |
| 1787745758 | 26.11° C | 57% | - | 0 mm | - | - | - |
| 1787745180 | 26.11° C | 56% | - | 0 mm | - | - | - |
| 1787744557 | 26.11° C | 57% | - | 0.25 mm | - | - | - |
| 1787743983 | 26.11° C | 59% | - | 0.25 mm | - | - | - |
| 1787743357 | 25.56° C | 58% | - | 0.25 mm | - | - | - |
| 1787742781 | 25.56° C | 59% | - | 0.25 mm | - | - | - |
| 1787742159 | 25.56° C | 60% | - | 0.25 mm | - | - | - |
* Rain latest hour (hover to see other rain measurements)
** Current wind speed in m/s (hover to see current wind gust speed)